Barrow, AK

4:56 PM AKDT on October 23, 2017 (GMT -0800)
Wiley Post-Will Rogers Memorial

Weather History for PABR - August, 2013

Change the Weather History Date:

Sunday, August 18, 2013

  Actual Average Record
Temperature  
Mean Temperature 39 °F 39 °F  
Max Temperature 41 °F 44 °F 63 °F (1923)
Min Temperature 36 °F 34 °F 25 °F (1991)
Degree Days  
Heating Degree Days 26 26  
Month to date heating degree days 401 455  
Since 1 June heating degree days 1808 2085  
Since 1 July heating degree days 1030 1204  
Cooling Degree Days 0 0  
Month to date cooling degree days 0 0  
Year to date cooling degree days 0 0  
Since 1 June cooling degree days 0 0  
Moisture  
Dew Point 34 °F    
Average Humidity 0    
Maximum Humidity 93    
Minimum Humidity 70    
Precipitation  
Precipitation 0.02 in 0.03 in 0.48 in (1946)
Month to date precipitation 1.25 0.62  
Year to date precipitation 4.92 2.62  
Snow  
Snow T in 0.00 in 1.90 in (1931)
Month to date snowfall T 0.3  
Since 1 June snowfall 0.3 1.2  
Since 1 July snowfall T 0.5  
Snow Depth 0.00 in    
Sea Level Pressure  
Sea Level Pressure 29.80 in    
Wind  
Wind Speed 12 mph (NE)    
Max Wind Speed 21 mph    
Max Gust Speed 25 mph    
Visibility 9 miles    
Events Rain , Snow    
T = Trace of Precipitation, MM = Missing Value Source: NWS Daily Summary

Daily Weather History Graph

Daily Weather History Graph

Search for Another Location

Airport or City:

Trip Planner

Search our weather history database for the weather conditions in past years. The results will help you decide how hot, cold, wet, or windy it might be!

Date:

Astronomy

Aug. 18, 2013 Rise Set
Actual Time 5:25 AM AKDT 11:31 PM AKDT
Civil Twilight 3:03 AM AKDT 2:11 AM AKDT
Nautical Twilight Sun does not rise Sun does not rise
Astronomical Twilight Sun does not rise Sun does not rise
Moon 10:19 PM AKDT (8/18) 1:12 AM AKDT (8/18)
Length of Visible Light 23h 08m
Length of Day
18h 06m
Waxing Gibbous, 93% of the Moon is Illuminated
Aug 18
Waxing Gibbous
Aug 20
Full
Aug 28
Last Quarter
Sep 5
New
Sep 12
First Quarter

Hourly Weather History & Observations

Time (AKDT) Temp. Windchill Dew Point Humidity Pressure Visibility Wind Dir Wind Speed Gust Speed Precip Events Conditions
12:53 AM 39.9 °F 34.5 °F 36.0 °F 86% 29.78 in 10.0 mi East 8.1 mph - N/A   Overcast
1:53 AM 39.0 °F 34.8 °F 36.0 °F 89% 29.78 in 10.0 mi East 5.8 mph - N/A   Mostly Cloudy
2:53 AM 39.0 °F 34.0 °F 35.1 °F 86% 29.79 in 10.0 mi ENE 6.9 mph - N/A   Overcast
3:51 AM 37.4 °F 32.1 °F 35.6 °F 93% 29.78 in 10.0 mi ENE 6.9 mph - N/A   Mostly Cloudy
3:53 AM 37.9 °F 32.7 °F 36.0 °F 93% 29.78 in 10.0 mi ENE 6.9 mph - N/A   Mostly Cloudy
4:53 AM 39.0 °F 34.0 °F 36.0 °F 89% 29.78 in 10.0 mi ENE 6.9 mph - N/A   Overcast
5:46 AM 39.2 °F 33.6 °F 35.6 °F 87% 29.78 in 10.0 mi ENE 8.1 mph - N/A   Overcast
5:53 AM 39.0 °F 33.4 °F 35.1 °F 86% 29.78 in 10.0 mi ENE 8.1 mph - N/A   Overcast
6:53 AM 37.9 °F 30.9 °F 35.1 °F 89% 29.78 in 10.0 mi NE 10.4 mph - N/A   Overcast
7:53 AM 37.0 °F 28.9 °F 35.1 °F 93% 29.78 in 10.0 mi NE 12.7 mph - 0.00 in Rain Light Rain
8:53 AM 37.0 °F 31.0 °F 34.0 °F 89% 29.79 in 10.0 mi NE 8.1 mph - 0.00 in   Overcast
9:53 AM 37.9 °F 31.5 °F 33.1 °F 83% 29.79 in 10.0 mi NE 9.2 mph - 0.00 in   Overcast
10:00 AM 37.4 °F 30.8 °F 33.8 °F 87% 29.79 in 10.0 mi NNE 9.2 mph - N/A   Overcast
10:53 AM 37.9 °F 32.1 °F 32.0 °F 79% 29.79 in 10.0 mi North 8.1 mph - N/A   Overcast
11:22 AM 37.4 °F 30.8 °F 30.2 °F 75% 29.79 in 10.0 mi North 9.2 mph - N/A   Overcast
11:53 AM 37.9 °F 32.1 °F 30.9 °F 76% 29.80 in 10.0 mi North 8.1 mph - N/A   Overcast
12:53 PM 37.9 °F 32.1 °F 32.0 °F 79% 29.80 in 10.0 mi NNE 8.1 mph - N/A   Overcast
1:53 PM 39.0 °F 32.8 °F 30.9 °F 73% 29.80 in 10.0 mi NE 9.2 mph - N/A   Overcast
2:04 PM 39.2 °F 32.5 °F 30.2 °F 70% 29.79 in 10.0 mi NNE 10.4 mph - N/A   Overcast
2:53 PM 39.0 °F 31.8 °F 30.9 °F 73% 29.80 in 10.0 mi NE 11.5 mph - N/A   Mostly Cloudy
3:34 PM 37.4 °F 31.4 °F 33.8 °F 87% 29.80 in 9.0 mi NNE 8.1 mph - N/A   Overcast
3:48 PM 37.4 °F 28.9 °F 35.6 °F 93% 29.80 in 3.0 mi NE 13.8 mph - 0.00 in   Light Drizzle
3:53 PM 39.0 °F 31.4 °F 35.1 °F 86% 29.80 in 6.0 mi NNE 12.7 mph - 0.00 in   Light Drizzle
4:53 PM 37.9 °F 29.2 °F 36.0 °F 93% 29.80 in 3.0 mi NE 15.0 mph - 0.00 in Rain Light Rain
5:21 PM 37.4 °F 28.5 °F 35.6 °F 93% 29.80 in 1.5 mi NE 15.0 mph - 0.01 in Rain , Snow Light Rain
5:33 PM 37.4 °F 27.2 °F 33.8 °F 87% 29.80 in 5.0 mi NE 19.6 mph - 0.01 in Rain Light Rain
5:53 PM 37.9 °F 28.2 °F 34.0 °F 86% 29.80 in 10.0 mi NE 18.4 mph - 0.01 in   Overcast
6:53 PM 39.0 °F 29.6 °F 35.1 °F 86% 29.80 in 10.0 mi NE 18.4 mph - 0.01 in   Overcast
7:53 PM 39.0 °F 30.6 °F 36.0 °F 89% 29.81 in 10.0 mi ENE 15.0 mph - 0.00 in   Overcast
8:53 PM 37.9 °F 28.2 °F 36.0 °F 93% 29.82 in 10.0 mi ENE 18.4 mph - 0.00 in Rain , Snow Light Rain
9:53 PM 37.0 °F 27.7 °F 35.1 °F 93% 29.83 in 4.0 mi ENE 16.1 mph - 0.00 in Rain , Snow Light Rain
10:24 PM 37.4 °F 27.8 °F 33.8 °F 87% 29.83 in 7.0 mi NE 17.3 mph 24.2 mph 0.00 in Rain Light Rain
10:53 PM 37.0 °F 27.7 °F 34.0 °F 89% 29.84 in 9.0 mi NE 16.1 mph - 0.00 in   Overcast
11:53 PM 36.0 °F 26.0 °F 33.1 °F 89% 29.85 in 4.0 mi NE 17.3 mph - 0.00 in Rain Light Rain